TimeCST,TemperatureF,Dew PointF,Humidity,Sea Level PressureIn,VisibilityMPH,Wind Direction,Wind SpeedMPH,Gust SpeedMPH,PrecipitationIn,Events,Conditions,WindDirDegrees,DateUTC
12:15 AM,46.4,37.4,71,30.28,10.0,Variable,11.5,38.0,N/A,,Overcast,0,2014-01-29 06:15:00
12:35 AM,46.4,37.4,71,30.28,10.0,North,17.3,27.6,N/A,,Overcast,10,2014-01-29 06:35:00
12:55 AM,46.4,37.4,71,30.28,10.0,North,18.4,34.5,N/A,,Overcast,10,2014-01-29 06:55:00
1:15 AM,46.4,37.4,71,30.28,10.0,Variable,15.0,28.8,N/A,,Overcast,0,2014-01-29 07:15:00
1:35 AM,46.4,37.4,71,30.27,10.0,Variable,10.4,26.5,N/A,,Overcast,0,2014-01-29 07:35:00
1:55 AM,46.4,39.2,76,30.27,8.0,NE,10.4,31.1,N/A,,Mostly Cloudy,40,2014-01-29 07:55:00
2:15 AM,46.4,39.2,76,30.28,5.0,NNE,12.7,27.6,N/A,,Haze,20,2014-01-29 08:15:00
2:35 AM,46.4,41.0,81,30.26,6.0,NE,9.2,31.1,N/A,,Haze,40,2014-01-29 08:35:00
2:55 AM,46.4,39.2,76,30.27,9.0,Variable,13.8,32.2,N/A,,Mostly Cloudy,0,2014-01-29 08:55:00
3:15 AM,46.4,39.2,76,30.28,2.5,North,21.9,31.1,N/A,,Haze,360,2014-01-29 09:15:00
3:35 AM,46.4,39.2,76,30.27,9.0,North,23.0,32.2,N/A,,Overcast,360,2014-01-29 09:35:00
3:55 AM,46.4,37.4,71,30.27,8.0,Variable,13.8,38.0,N/A,,Mostly Cloudy,0,2014-01-29 09:55:00
4:15 AM,46.4,39.2,76,30.29,5.0,NNE,17.3,31.1,N/A,,Haze,20,2014-01-29 10:15:00
4:35 AM,46.4,39.2,76,30.30,4.0,North,11.5,26.5,N/A,,Haze,10,2014-01-29 10:35:00
4:55 AM,44.6,39.2,81,30.30,3.0,North,18.4,29.9,N/A,,Haze,10,2014-01-29 10:55:00
5:15 AM,44.6,39.2,81,30.29,3.0,NE,12.7,28.8,N/A,,Haze,50,2014-01-29 11:15:00
5:35 AM,44.6,39.2,81,30.28,5.0,North,-9999.0,-,N/A,,Haze,0,2014-01-29 11:35:00
5:55 AM,44.6,37.4,76,30.30,-9999.0,NE,11.5,31.1,N/A,,Overcast,40,2014-01-29 11:55:00
6:15 AM,46.4,37.4,71,30.31,10.0,NE,10.4,34.5,N/A,,Overcast,40,2014-01-29 12:15:00
6:35 AM,44.6,37.4,76,30.33,7.0,ENE,16.1,31.1,N/A,,Mostly Cloudy,60,2014-01-29 12:35:00
6:55 AM,44.6,35.6,71,30.33,8.0,ENE,10.4,21.9,N/A,,Mostly Cloudy,60,2014-01-29 12:55:00
7:15 AM,44.6,35.6,71,30.35,6.0,ENE,17.3,36.8,N/A,,Haze,60,2014-01-29 13:15:00
7:35 AM,44.6,35.6,71,30.36,3.0,ENE,21.9,31.1,N/A,,Haze,60,2014-01-29 13:35:00
7:55 AM,44.6,35.6,71,30.36,4.0,ENE,16.1,29.9,N/A,,Haze,70,2014-01-29 13:55:00
8:15 AM,44.6,35.6,71,30.36,7.0,ENE,16.1,29.9,N/A,,Mostly Cloudy,60,2014-01-29 14:15:00
8:35 AM,44.6,35.6,71,30.38,7.0,Variable,6.9,27.6,N/A,,Mostly Cloudy,0,2014-01-29 14:35:00
8:55 AM,46.4,35.6,66,30.37,8.0,NE,10.4,28.8,N/A,,Mostly Cloudy,50,2014-01-29 14:55:00
9:15 AM,46.4,35.6,66,30.36,10.0,ENE,20.7,34.5,N/A,,Mostly Cloudy,60,2014-01-29 15:15:00
9:35 AM,46.4,33.8,62,30.38,10.0,ENE,25.3,31.1,N/A,,Mostly Cloudy,70,2014-01-29 15:35:00
9:55 AM,48.2,33.8,58,30.40,10.0,ENE,17.3,28.8,N/A,,Mostly Cloudy,60,2014-01-29 15:55:00
10:15 AM,48.2,32.0,54,30.40,10.0,ENE,20.7,29.9,N/A,,Overcast,70,2014-01-29 16:15:00
10:35 AM,48.2,32.0,54,30.39,10.0,ENE,19.6,28.8,N/A,,Overcast,70,2014-01-29 16:35:00
10:55 AM,48.2,33.8,58,30.38,10.0,ENE,25.3,34.5,N/A,,Overcast,70,2014-01-29 16:55:00
11:15 AM,50.0,33.8,54,30.37,10.0,ENE,24.2,33.4,N/A,,Overcast,70,2014-01-29 17:15:00
11:35 AM,50.0,33.8,54,30.34,10.0,ENE,24.2,36.8,N/A,,Mostly Cloudy,60,2014-01-29 17:35:00
11:55 AM,50.0,33.8,54,30.34,10.0,ENE,27.6,34.5,N/A,,Mostly Cloudy,70,2014-01-29 17:55:00
12:15 PM,50.0,33.8,54,30.37,10.0,ENE,12.7,29.9,N/A,,Mostly Cloudy,60,2014-01-29 18:15:00
12:35 PM,50.0,33.8,54,30.38,10.0,NNE,8.1,17.3,N/A,,Overcast,30,2014-01-29 18:35:00
12:55 PM,50.0,33.8,54,30.32,-9999.0,ENE,13.8,27.6,N/A,,Overcast,60,2014-01-29 18:55:00
1:15 PM,48.2,33.8,58,30.31,10.0,ENE,12.7,27.6,N/A,,Overcast,60,2014-01-29 19:15:00
1:35 PM,48.2,33.8,58,30.29,10.0,ENE,19.6,31.1,N/A,,Mostly Cloudy,60,2014-01-29 19:35:00
1:55 PM,50.0,33.8,54,30.29,10.0,ENE,10.4,29.9,N/A,,Mostly Cloudy,60,2014-01-29 19:55:00
2:15 PM,48.2,33.8,58,30.28,10.0,ENE,27.6,-,N/A,,Overcast,70,2014-01-29 20:15:00
2:35 PM,48.2,33.8,58,30.30,10.0,NE,9.2,25.3,N/A,,Overcast,40,2014-01-29 20:35:00
2:55 PM,50.0,33.8,54,30.31,10.0,North,12.7,25.3,N/A,,Overcast,10,2014-01-29 20:55:00
3:15 PM,50.0,35.6,58,30.31,10.0,Variable,6.9,25.3,N/A,,Overcast,0,2014-01-29 21:15:00
3:35 PM,48.2,33.8,58,30.31,10.0,Variable,6.9,21.9,N/A,,Mostly Cloudy,0,2014-01-29 21:35:00
3:55 PM,48.2,33.8,58,30.29,10.0,Variable,6.9,28.8,N/A,,Overcast,0,2014-01-29 21:55:00
4:15 PM,48.2,33.8,58,30.29,10.0,NE,10.4,24.2,N/A,,Overcast,50,2014-01-29 22:15:00
4:35 PM,48.2,35.6,62,30.29,10.0,ENE,23.0,28.8,N/A,,Overcast,70,2014-01-29 22:35:00
4:55 PM,48.2,33.8,58,30.30,10.0,NE,8.1,28.8,N/A,,Overcast,50,2014-01-29 22:55:00
5:15 PM,48.2,33.8,58,30.30,10.0,Variable,10.4,23.0,N/A,,Mostly Cloudy,0,2014-01-29 23:15:00
5:35 PM,48.2,33.8,58,30.30,10.0,ENE,13.8,25.3,N/A,,Mostly Cloudy,60,2014-01-29 23:35:00
5:55 PM,48.2,33.8,58,30.30,10.0,Variable,6.9,21.9,N/A,,Mostly Cloudy,0,2014-01-29 23:55:00
6:15 PM,48.2,33.8,58,30.30,10.0,ENE,16.1,26.5,N/A,,Mostly Cloudy,60,2014-01-30 00:15:00
6:35 PM,48.2,32.0,54,30.32,10.0,NE,8.1,26.5,N/A,,Mostly Cloudy,40,2014-01-30 00:35:00
6:55 PM,48.2,35.6,62,30.32,10.0,ENE,21.9,-,N/A,,Overcast,70,2014-01-30 00:55:00
7:15 PM,48.2,33.8,58,30.30,10.0,ENE,19.6,25.3,N/A,,Mostly Cloudy,70,2014-01-30 01:15:00
7:35 PM,48.2,33.8,58,30.31,10.0,ENE,20.7,28.8,N/A,,Mostly Cloudy,70,2014-01-30 01:35:00
7:55 PM,48.2,33.8,58,30.31,10.0,ENE,20.7,26.5,N/A,,Mostly Cloudy,70,2014-01-30 01:55:00
8:10 PM,48.2,33.8,58,30.31,10.0,East,20.7,-,N/A,,Mostly Cloudy,80,2014-01-30 02:10:00
8:35 PM,48.2,33.8,58,30.31,10.0,ENE,20.7,27.6,N/A,,Scattered Clouds,70,2014-01-30 02:35:00
8:55 PM,50.0,33.8,54,30.31,10.0,ENE,17.3,26.5,N/A,,Scattered Clouds,70,2014-01-30 02:55:00
9:15 PM,50.0,33.8,54,30.32,10.0,ENE,19.6,26.5,N/A,,Scattered Clouds,70,2014-01-30 03:15:00
9:35 PM,50.0,33.8,54,30.32,10.0,ENE,13.8,21.9,N/A,,Scattered Clouds,60,2014-01-30 03:35:00
9:55 PM,50.0,33.8,54,30.31,10.0,ENE,19.6,-,N/A,,Scattered Clouds,70,2014-01-30 03:55:00
10:15 PM,50.0,33.8,54,30.31,10.0,ENE,16.1,21.9,N/A,,Mostly Cloudy,70,2014-01-30 04:15:00
10:35 PM,50.0,33.8,54,30.31,10.0,ENE,17.3,-,N/A,,Mostly Cloudy,70,2014-01-30 04:35:00
10:55 PM,50.0,33.8,54,30.31,10.0,East,16.1,-,N/A,,Scattered Clouds,80,2014-01-30 04:55:00
11:15 PM,50.0,33.8,54,30.30,10.0,East,18.4,-,N/A,,Mostly Cloudy,80,2014-01-30 05:15:00
11:35 PM,50.0,35.6,58,30.28,10.0,ENE,18.4,-,N/A,,Mostly Cloudy,70,2014-01-30 05:35:00
11:55 PM,50.0,33.8,54,30.27,10.0,East,17.3,-,N/A,,Scattered Clouds,90,2014-01-30 05:55:00